Time,TemperatureF,DewpointF,PressureIn,WindDirection,WindDirectionDegrees,WindSpeedMPH,WindSpeedGustMPH,Humidity,HourlyPrecipIn,Conditions,Clouds,dailyrainin,SoftwareType,DateUTC
2013-03-18 00:00:00,34.6,33.6,30.01,NE,47,2.0,2.0,96,0.09,,,0.50,Wunderground v.1.15,2013-03-18 04:00:00,
2013-03-18 00:05:00,34.6,33.6,30.01,NNE,25,2.0,2.0,96,0.09,,,0.00,Wunderground v.1.15,2013-03-18 04:05:00,
2013-03-18 00:10:00,34.6,33.6,30.01,NNE,27,2.0,2.0,96,0.11,,,0.01,Wunderground v.1.15,2013-03-18 04:10:00,
2013-03-18 00:15:00,34.6,33.6,30.01,NNE,31,2.0,2.0,96,0.09,,,0.02,Wunderground v.1.15,2013-03-18 04:15:00,
2013-03-18 00:20:00,34.6,33.6,30.00,NNE,31,2.0,2.0,96,0.08,,,0.03,Wunderground v.1.15,2013-03-18 04:20:00,
2013-03-18 00:25:00,34.6,33.6,30.00,NE,37,1.0,2.0,96,0.08,,,0.03,Wunderground v.1.15,2013-03-18 04:25:00,
2013-03-18 00:30:00,34.6,33.6,30.00,NE,37,1.0,2.0,96,0.06,,,0.04,Wunderground v.1.15,2013-03-18 04:30:00,
2013-03-18 00:40:00,34.6,33.6,30.00,NE,49,1.0,1.0,96,0.05,,,0.04,Wunderground v.1.15,2013-03-18 04:40:00,
2013-03-18 00:50:00,34.7,33.7,29.99,NE,49,1.0,1.0,96,0.04,,,0.05,Wunderground v.1.15,2013-03-18 04:50:00,
2013-03-18 01:00:00,34.7,33.7,29.99,NE,48,1.0,2.0,96,0.04,,,0.05,Wunderground v.1.15,2013-03-18 05:00:00,
2013-03-18 01:05:00,34.7,33.7,29.98,NE,48,1.0,2.0,96,0.00,,,0.05,Wunderground v.1.15,2013-03-18 05:05:00,
2013-03-18 01:15:00,34.9,33.9,29.98,NE,48,1.0,1.0,96,0.00,,,0.06,Wunderground v.1.15,2013-03-18 05:15:00,
2013-03-18 01:20:00,34.9,33.9,29.98,NE,44,1.0,2.0,96,0.00,,,0.06,Wunderground v.1.15,2013-03-18 05:20:00,
2013-03-18 01:30:00,34.9,33.9,29.98,ENE,59,1.0,1.0,96,0.08,,,0.08,Wunderground v.1.15,2013-03-18 05:30:00,
2013-03-18 01:40:00,35.0,34.0,29.97,East,96,1.0,2.0,96,0.09,,,0.09,Wunderground v.1.15,2013-03-18 05:40:00,
2013-03-18 01:50:00,35.0,34.0,29.97,ENE,69,1.0,2.0,96,0.12,,,0.11,Wunderground v.1.15,2013-03-18 05:50:00,
2013-03-18 02:00:00,35.0,34.0,29.97,ENE,64,1.0,1.0,96,0.07,,,0.12,Wunderground v.1.15,2013-03-18 06:00:00,
2013-03-18 02:05:00,35.0,34.2,29.96,ENE,64,1.0,1.0,97,0.06,,,0.12,Wunderground v.1.15,2013-03-18 06:05:00,
2013-03-18 02:15:00,35.0,34.2,29.96,ENE,64,1.0,1.0,97,0.00,,,0.13,Wunderground v.1.15,2013-03-18 06:15:00,
2013-03-18 02:25:00,35.0,34.2,29.95,ENE,64,1.0,1.0,97,0.00,,,0.13,Wunderground v.1.15,2013-03-18 06:25:00,
2013-03-18 02:35:00,35.2,34.4,29.95,ENE,58,1.0,1.0,97,0.00,,,0.13,Wunderground v.1.15,2013-03-18 06:35:00,
2013-03-18 02:40:00,35.2,34.4,29.95,ENE,58,1.0,1.0,97,0.00,,,0.13,Wunderground v.1.15,2013-03-18 06:40:00,
2013-03-18 02:50:00,35.2,34.4,29.94,ENE,59,1.0,1.0,97,0.00,,,0.13,Wunderground v.1.15,2013-03-18 06:50:00,
2013-03-18 03:00:00,35.3,34.5,29.94,NE,44,1.0,1.0,97,0.00,,,0.14,Wunderground v.1.15,2013-03-18 07:00:00,
2013-03-18 03:10:00,35.3,34.5,29.93,NE,44,0.0,0.0,97,0.00,,,0.14,Wunderground v.1.15,2013-03-18 07:10:00,
2013-03-18 03:20:00,35.3,34.5,29.92,NE,56,1.0,1.0,97,0.00,,,0.14,Wunderground v.1.15,2013-03-18 07:20:00,
2013-03-18 03:25:00,35.3,34.5,29.92,NE,56,1.0,1.0,97,0.00,,,0.14,Wunderground v.1.15,2013-03-18 07:25:00,
2013-03-18 03:35:00,35.5,34.7,29.92,NE,56,0.0,2.0,97,0.00,,,0.15,Wunderground v.1.15,2013-03-18 07:35:00,
2013-03-18 03:45:00,35.5,34.7,29.92,NE,56,0.0,1.0,97,0.00,,,0.15,Wunderground v.1.15,2013-03-18 07:45:00,
2013-03-18 03:50:00,35.5,34.7,29.92,NE,56,0.0,0.0,97,0.00,,,0.15,Wunderground v.1.15,2013-03-18 07:50:00,
2013-03-18 04:00:00,35.5,34.7,29.92,NE,56,0.0,0.0,97,0.00,,,0.15,Wunderground v.1.15,2013-03-18 08:00:00,
2013-03-18 04:10:00,35.5,34.7,29.91,NE,56,0.0,0.0,97,0.00,,,0.15,Wunderground v.1.15,2013-03-18 08:10:00,
2013-03-18 04:20:00,35.6,34.8,29.90,NE,56,1.0,1.0,97,0.00,,,0.16,Wunderground v.1.15,2013-03-18 08:20:00,
2013-03-18 04:30:00,35.6,34.8,29.90,NE,56,1.0,1.0,97,0.00,,,0.16,Wunderground v.1.15,2013-03-18 08:30:00,
2013-03-18 04:40:00,35.6,34.8,29.88,East,82,1.0,1.0,97,0.00,,,0.16,Wunderground v.1.15,2013-03-18 08:40:00,
2013-03-18 04:45:00,35.6,34.8,29.88,East,89,1.0,1.0,97,0.00,,,0.16,Wunderground v.1.15,2013-03-18 08:45:00,
2013-03-18 04:50:00,35.6,34.8,29.86,East,96,2.0,2.0,97,0.00,,,0.16,Wunderground v.1.15,2013-03-18 08:50:00,
2013-03-18 05:00:00,35.8,35.0,29.86,ESE,121,2.0,2.0,97,0.00,,,0.17,Wunderground v.1.15,2013-03-18 09:00:00,
2013-03-18 05:10:00,35.9,35.4,29.83,SE,138,3.0,3.0,98,0.00,,,0.17,Wunderground v.1.15,2013-03-18 09:10:00,
2013-03-18 05:20:00,36.2,35.7,29.84,ESE,113,1.0,1.0,98,0.00,,,0.17,Wunderground v.1.15,2013-03-18 09:20:00,
2013-03-18 05:30:00,36.3,35.8,29.84,SE,126,2.0,2.0,98,0.00,,,0.18,Wunderground v.1.15,2013-03-18 09:30:00,
2013-03-18 05:40:00,36.5,36.0,29.83,SE,126,1.0,1.0,98,0.00,,,0.18,Wunderground v.1.15,2013-03-18 09:40:00,
2013-03-18 05:45:00,36.5,36.0,29.83,SE,126,0.0,1.0,98,0.00,,,0.18,Wunderground v.1.15,2013-03-18 09:45:00,
2013-03-18 05:50:00,36.3,35.8,29.84,SE,126,0.0,0.0,98,0.00,,,0.18,Wunderground v.1.15,2013-03-18 09:50:00,
2013-03-18 06:00:00,36.3,35.8,29.84,SE,126,0.0,0.0,98,0.00,,,0.18,Wunderground v.1.15,2013-03-18 10:00:00,
2013-03-18 06:10:00,36.2,35.7,29.83,SE,126,0.0,0.0,98,0.00,,,0.18,Wunderground v.1.15,2013-03-18 10:10:00,
2013-03-18 06:20:00,36.2,35.7,29.82,SE,126,0.0,0.0,98,0.00,,,0.18,Wunderground v.1.15,2013-03-18 10:20:00,
2013-03-18 06:25:00,36.2,35.7,29.82,SE,126,0.0,0.0,98,0.00,,,0.19,Wunderground v.1.15,2013-03-18 10:25:00,
2013-03-18 06:35:00,36.3,35.8,29.80,SE,126,0.0,1.0,98,0.00,,,0.19,Wunderground v.1.15,2013-03-18 10:35:00,
2013-03-18 06:40:00,36.5,36.0,29.80,SE,126,0.0,0.0,98,0.00,,,0.19,Wunderground v.1.15,2013-03-18 10:40:00,
2013-03-18 06:50:00,36.6,36.1,29.80,SE,126,0.0,1.0,98,0.00,,,0.19,Wunderground v.1.15,2013-03-18 10:50:00,
2013-03-18 07:00:00,36.6,36.1,29.80,SE,126,1.0,2.0,98,0.00,,,0.19,Wunderground v.1.15,2013-03-18 11:00:00,
2013-03-18 07:10:00,36.8,36.5,29.78,SE,126,1.0,1.0,99,0.00,,,0.19,Wunderground v.1.15,2013-03-18 11:10:00,
2013-03-18 07:20:00,36.8,36.5,29.77,SE,126,0.0,0.0,99,0.00,,,0.20,Wunderground v.1.15,2013-03-18 11:20:00,
2013-03-18 07:30:00,36.9,36.6,29.77,SE,126,1.0,1.0,99,0.00,,,0.20,Wunderground v.1.15,2013-03-18 11:30:00,
2013-03-18 07:35:00,37.0,36.7,29.77,SE,126,1.0,1.0,99,0.00,,,0.20,Wunderground v.1.15,2013-03-18 11:35:00,
2013-03-18 07:45:00,37.3,37.0,29.77,SE,126,1.0,1.0,99,0.00,,,0.20,Wunderground v.1.15,2013-03-18 11:45:00,
2013-03-18 07:50:00,37.6,37.3,29.76,SE,126,0.0,0.0,99,0.00,,,0.21,Wunderground v.1.15,2013-03-18 11:50:00,
2013-03-18 08:00:00,38.0,37.7,29.76,SE,126,1.0,1.0,99,0.05,,,0.22,Wunderground v.1.15,2013-03-18 12:00:00,
2013-03-18 08:05:00,38.2,37.9,29.75,SE,126,1.0,2.0,99,0.05,,,0.22,Wunderground v.1.15,2013-03-18 12:05:00,
2013-03-18 08:10:00,38.6,38.3,29.75,SE,126,1.0,1.0,99,0.06,,,0.23,Wunderground v.1.15,2013-03-18 12:10:00,
2013-03-18 08:20:00,39.2,38.9,29.76,SE,126,0.0,0.0,99,0.05,,,0.23,Wunderground v.1.15,2013-03-18 12:20:00,
2013-03-18 08:30:00,39.8,39.5,29.76,South,185,0.0,2.0,99,0.09,,,0.25,Wunderground v.1.15,2013-03-18 12:30:00,
2013-03-18 08:35:00,39.6,39.3,29.78,SSW,196,0.0,2.0,99,0.19,,,0.26,Wunderground v.1.15,2013-03-18 12:35:00,
2013-03-18 08:45:00,39.6,39.3,29.78,SSW,196,1.0,1.0,99,0.20,,,0.29,Wunderground v.1.15,2013-03-18 12:45:00,
2013-03-18 08:50:00,39.6,39.3,29.76,West,275,1.0,7.0,99,0.35,,,0.33,Wunderground v.1.15,2013-03-18 12:50:00,
2013-03-18 09:00:00,39.1,38.8,29.76,WNW,288,6.0,6.0,99,0.39,,,0.39,Wunderground v.1.15,2013-03-18 13:00:00,
2013-03-18 09:10:00,38.9,38.6,29.82,WNW,295,3.0,5.0,99,0.26,,,0.44,Wunderground v.1.15,2013-03-18 13:10:00,
2013-03-18 09:15:00,38.8,38.5,29.82,WNW,295,3.0,5.0,99,0.21,,,0.47,Wunderground v.1.15,2013-03-18 13:15:00,
2013-03-18 09:25:00,38.8,38.5,29.83,WNW,282,2.0,3.0,99,0.21,,,0.50,Wunderground v.1.15,2013-03-18 13:25:00,
2013-03-18 09:35:00,38.8,38.5,29.84,WNW,289,2.0,2.0,99,0.25,,,0.53,Wunderground v.1.15,2013-03-18 13:35:00,
2013-03-18 09:40:00,38.8,38.5,29.84,WNW,289,1.0,2.0,99,0.41,,,0.56,Wunderground v.1.15,2013-03-18 13:40:00,
2013-03-18 09:50:00,38.9,38.6,29.83,SSW,192,2.0,2.0,99,0.16,,,0.60,Wunderground v.1.15,2013-03-18 13:50:00,
2013-03-18 10:00:00,39.1,38.8,29.83,ESE,121,3.0,6.0,99,0.25,,,0.62,Wunderground v.1.15,2013-03-18 14:00:00,
2013-03-18 10:10:00,39.6,39.3,29.80,SE,131,6.0,6.0,99,0.08,,,0.64,Wunderground v.1.15,2013-03-18 14:10:00,
2013-03-18 10:20:00,40.6,40.3,29.79,SSE,150,4.0,5.0,99,0.08,,,0.65,Wunderground v.1.15,2013-03-18 14:20:00,
2013-03-18 10:30:00,41.1,40.8,29.79,SSE,150,2.0,2.0,99,0.18,,,0.68,Wunderground v.1.15,2013-03-18 14:30:00,
2013-03-18 10:35:00,41.2,40.9,29.79,SSE,148,1.0,2.0,99,0.18,,,0.69,Wunderground v.1.15,2013-03-18 14:35:00,
2013-03-18 10:45:00,41.3,41.0,29.79,SSE,148,1.0,2.0,99,0.30,,,0.73,Wunderground v.1.15,2013-03-18 14:45:00,
2013-03-18 10:55:00,42.2,41.9,29.80,SE,126,4.0,5.0,99,0.23,,,0.76,Wunderground v.1.15,2013-03-18 14:55:00,
2013-03-18 11:00:00,42.6,42.3,29.80,SE,133,5.0,5.0,99,0.36,,,0.78,Wunderground v.1.15,2013-03-18 15:00:00,
2013-03-18 11:10:00,43.5,43.2,29.77,SE,143,4.0,4.0,99,0.14,,,0.81,Wunderground v.1.15,2013-03-18 15:10:00,
2013-03-18 11:20:00,44.1,43.8,29.76,ESE,120,4.0,7.0,99,0.24,,,0.84,Wunderground v.1.15,2013-03-18 15:20:00,
2013-03-18 11:30:00,44.9,44.6,29.76,SSE,155,4.0,4.0,99,0.12,,,0.86,Wunderground v.1.15,2013-03-18 15:30:00,
2013-03-18 11:35:00,45.1,44.8,29.75,SE,145,4.0,4.0,99,0.12,,,0.87,Wunderground v.1.15,2013-03-18 15:35:00,
2013-03-18 11:45:00,45.5,45.2,29.75,SSE,148,4.0,4.0,99,0.07,,,0.88,Wunderground v.1.15,2013-03-18 15:45:00,
2013-03-18 11:50:00,45.7,45.4,29.75,ESE,110,5.0,5.0,99,0.06,,,0.89,Wunderground v.1.15,2013-03-18 15:50:00,
2013-03-18 12:00:00,46.1,45.8,29.75,SSE,157,5.0,5.0,99,0.08,,,0.91,Wunderground v.1.15,2013-03-18 16:00:00,
2013-03-18 12:10:00,46.4,46.1,29.77,South,172,5.0,8.0,99,0.11,,,0.93,Wunderground v.1.15,2013-03-18 16:10:00,
2013-03-18 12:20:00,46.5,46.2,29.77,SSE,152,5.0,5.0,99,0.14,,,0.95,Wunderground v.1.15,2013-03-18 16:20:00,
2013-03-18 12:25:00,46.7,46.4,29.77,SSE,162,5.0,5.0,99,0.11,,,0.96,Wunderground v.1.15,2013-03-18 16:25:00,
2013-03-18 12:35:00,47.0,46.7,29.76,SE,143,5.0,5.0,99,0.12,,,0.98,Wunderground v.1.15,2013-03-18 16:35:00,
2013-03-18 12:40:00,47.1,46.8,29.76,SSE,165,5.0,6.0,99,0.06,,,0.99,Wunderground v.1.15,2013-03-18 16:40:00,
2013-03-18 12:50:00,47.4,47.1,29.77,SE,131,6.0,6.0,99,0.11,,,1.01,Wunderground v.1.15,2013-03-18 16:50:00,
2013-03-18 13:00:00,47.7,47.2,29.77,SSE,161,5.0,6.0,98,0.13,,,1.03,Wunderground v.1.15,2013-03-18 17:00:00,
2013-03-18 13:10:00,48.0,47.5,29.78,SSE,161,5.0,5.0,98,0.15,,,1.06,Wunderground v.1.15,2013-03-18 17:10:00,
2013-03-18 13:15:00,48.3,47.8,29.78,SSE,148,5.0,5.0,98,0.19,,,1.08,Wunderground v.1.15,2013-03-18 17:15:00,
2013-03-18 13:25:00,48.6,48.1,29.78,SSE,162,5.0,5.0,98,0.08,,,1.09,Wunderground v.1.15,2013-03-18 17:25:00,
2013-03-18 13:35:00,48.9,48.4,29.77,SSE,148,6.0,6.0,98,0.10,,,1.11,Wunderground v.1.15,2013-03-18 17:35:00,
2013-03-18 13:40:00,49.1,48.6,29.77,South,191,5.0,5.0,98,0.11,,,1.12,Wunderground v.1.15,2013-03-18 17:40:00,
2013-03-18 13:50:00,49.2,48.7,29.78,SE,134,4.0,4.0,98,0.22,,,1.14,Wunderground v.1.15,2013-03-18 17:50:00,
2013-03-18 14:00:00,49.4,48.9,29.78,SSE,157,4.0,4.0,98,0.11,,,1.16,Wunderground v.1.15,2013-03-18 18:00:00,
2013-03-18 14:10:00,49.5,49.0,29.77,SSE,168,6.0,6.0,98,0.09,,,1.18,Wunderground v.1.15,2013-03-18 18:10:00,
2013-03-18 14:20:00,49.8,49.3,29.75,ESE,123,6.0,10.0,98,0.17,,,1.20,Wunderground v.1.15,2013-03-18 18:20:00,
2013-03-18 14:30:00,49.9,49.4,29.75,SSE,157,8.0,12.0,98,0.06,,,1.20,Wunderground v.1.15,2013-03-18 18:30:00,
2013-03-18 14:35:00,50.2,49.7,29.71,SSE,161,9.0,12.0,98,0.05,,,1.21,Wunderground v.1.15,2013-03-18 18:35:00,
2013-03-18 14:45:00,50.4,49.9,29.71,SE,128,10.0,12.0,98,0.04,,,1.21,Wunderground v.1.15,2013-03-18 18:45:00,
2013-03-18 14:50:00,50.5,50.0,29.66,SSE,158,10.0,10.0,98,0.00,,,1.21,Wunderground v.1.15,2013-03-18 18:50:00,
2013-03-18 15:00:00,51.0,50.5,29.66,SE,145,8.0,8.0,98,0.00,,,1.21,Wunderground v.1.15,2013-03-18 19:00:00,
2013-03-18 15:10:00,51.3,50.5,29.68,SE,133,8.0,8.0,97,0.00,,,1.21,Wunderground v.1.15,2013-03-18 19:10:00,
2013-03-18 15:20:00,51.7,50.9,29.64,SSE,154,8.0,8.0,97,0.00,,,1.21,Wunderground v.1.15,2013-03-18 19:20:00,
2013-03-18 15:30:00,52.2,50.8,29.64,SSE,147,6.0,6.0,95,0.00,,,1.21,Wunderground v.1.15,2013-03-18 19:30:00,
2013-03-18 15:35:00,52.5,51.1,29.66,SSE,165,6.0,10.0,95,0.00,,,1.21,Wunderground v.1.15,2013-03-18 19:35:00,
2013-03-18 15:45:00,52.9,50.9,29.66,ESE,110,6.0,6.0,93,0.00,,,1.21,Wunderground v.1.15,2013-03-18 19:45:00,
2013-03-18 15:50:00,53.2,51.2,29.65,South,171,5.0,6.0,93,0.00,,,1.21,Wunderground v.1.15,2013-03-18 19:50:00,
2013-03-18 16:00:00,53.6,50.7,29.65,SSE,154,5.0,5.0,90,0.00,,,1.21,Wunderground v.1.15,2013-03-18 20:00:00,
2013-03-18 16:10:00,53.9,50.7,29.66,South,188,5.0,5.0,89,0.00,,,1.21,Wunderground v.1.15,2013-03-18 20:10:00,
2013-03-18 16:15:00,54.1,50.6,29.66,SE,130,5.0,5.0,88,0.00,,,1.21,Wunderground v.1.15,2013-03-18 20:15:00,
2013-03-18 16:25:00,54.5,50.7,29.66,South,174,4.0,5.0,87,0.00,,,1.21,Wunderground v.1.15,2013-03-18 20:25:00,
2013-03-18 16:30:00,54.5,50.4,29.66,South,191,4.0,4.0,86,0.00,,,1.21,Wunderground v.1.15,2013-03-18 20:30:00,
2013-03-18 16:35:00,54.5,50.4,29.66,SSW,202,5.0,5.0,86,0.00,,,1.21,Wunderground v.1.15,2013-03-18 20:35:00,
2013-03-18 16:45:00,54.4,50.3,29.66,South,182,4.0,4.0,86,0.00,,,1.21,Wunderground v.1.15,2013-03-18 20:45:00,
2013-03-18 16:55:00,54.4,50.3,29.66,SSE,162,4.0,6.0,86,0.00,,,1.21,Wunderground v.1.15,2013-03-18 20:55:00,
2013-03-18 17:00:00,54.4,50.0,29.66,SE,136,4.0,4.0,85,0.00,,,1.21,Wunderground v.1.15,2013-03-18 21:00:00,
2013-03-18 17:10:00,54.2,50.1,29.66,SSE,158,3.0,3.0,86,0.00,,,1.21,Wunderground v.1.15,2013-03-18 21:10:00,
2013-03-18 17:20:00,54.2,49.8,29.65,SE,145,4.0,8.0,85,0.00,,,1.21,Wunderground v.1.15,2013-03-18 21:20:00,
2013-03-18 17:30:00,54.2,49.8,29.65,SE,133,4.0,7.0,85,0.00,,,1.21,Wunderground v.1.15,2013-03-18 21:30:00,
2013-03-18 17:35:00,54.4,49.7,29.65,ESE,120,4.0,7.0,84,0.00,,,1.21,Wunderground v.1.15,2013-03-18 21:35:00,
2013-03-18 17:40:00,54.4,49.7,29.65,South,189,3.0,3.0,84,0.00,,,1.21,Wunderground v.1.15,2013-03-18 21:40:00,
2013-03-18 17:49:00,54.4,49.7,29.66,South,185,4.0,5.0,84,0.00,,,1.21,Wunderground v.1.15,2013-03-18 21:49:00,
2013-03-18 17:55:00,54.4,49.3,29.66,SSE,164,5.0,6.0,83,0.00,,,1.21,Wunderground v.1.15,2013-03-18 21:55:00,
2013-03-18 18:00:00,54.2,49.5,29.66,South,186,4.0,4.0,84,0.00,,,1.21,Wunderground v.1.15,2013-03-18 22:00:00,
2013-03-18 18:10:00,54.2,49.5,29.66,South,175,4.0,4.0,84,0.00,,,1.21,Wunderground v.1.15,2013-03-18 22:10:00,
2013-03-18 18:20:00,54.5,49.4,29.67,WSW,246,4.0,4.0,83,0.00,,,1.21,Wunderground v.1.15,2013-03-18 22:20:00,
2013-03-18 18:30:00,54.5,49.8,29.67,South,182,3.0,3.0,84,0.00,,,1.21,Wunderground v.1.15,2013-03-18 22:30:00,
2013-03-18 18:35:00,54.5,49.8,29.66,SW,215,4.0,4.0,84,0.00,,,1.21,Wunderground v.1.15,2013-03-18 22:35:00,
2013-03-18 18:40:00,54.5,49.8,29.66,South,182,3.0,6.0,84,0.00,,,1.21,Wunderground v.1.15,2013-03-18 22:40:00,
2013-03-18 18:50:00,54.5,50.1,29.67,WSW,240,4.0,4.0,85,0.00,,,1.21,Wunderground v.1.15,2013-03-18 22:50:00,
2013-03-18 19:00:00,54.4,50.0,29.67,SSW,198,2.0,6.0,85,0.00,,,1.21,Wunderground v.1.15,2013-03-18 23:00:00,
2013-03-18 19:05:00,54.4,50.0,29.67,SSW,198,2.0,6.0,85,0.00,,,1.21,Wunderground v.1.15,2013-03-18 23:05:00,
2013-03-18 19:15:00,54.4,50.3,29.67,SSE,160,1.0,2.0,86,0.00,,,1.21,Wunderground v.1.15,2013-03-18 23:15:00,
2013-03-18 19:25:00,54.5,50.4,29.68,SSE,150,3.0,3.0,86,0.00,,,1.21,Wunderground v.1.15,2013-03-18 23:25:00,
2013-03-18 19:30:00,54.7,50.3,29.68,SSW,202,3.0,3.0,85,0.00,,,1.21,Wunderground v.1.15,2013-03-18 23:30:00,
2013-03-18 19:40:00,54.7,50.3,29.68,South,185,2.0,2.0,85,0.00,,,1.21,Wunderground v.1.15,2013-03-18 23:40:00,
2013-03-18 19:50:00,54.8,50.4,29.68,SSE,164,3.0,3.0,85,0.00,,,1.21,Wunderground v.1.15,2013-03-18 23:50:00,
2013-03-18 20:00:00,55.0,50.3,29.68,SW,226,2.0,2.0,84,0.00,,,1.21,Wunderground v.1.15,2013-03-19 00:00:00,
2013-03-18 20:05:00,54.8,50.4,29.68,South,189,2.0,6.0,85,0.00,,,1.21,Wunderground v.1.15,2013-03-19 00:05:00,
2013-03-18 20:15:00,54.8,50.4,29.68,SSW,199,3.0,7.0,85,0.00,,,1.21,Wunderground v.1.15,2013-03-19 00:15:00,
2013-03-18 20:25:00,55.0,50.6,29.68,SW,217,3.0,3.0,85,0.00,,,1.21,Wunderground v.1.15,2013-03-19 00:25:00,
2013-03-18 20:30:00,54.8,50.4,29.68,SW,222,2.0,2.0,85,0.00,,,1.21,Wunderground v.1.15,2013-03-19 00:30:00,
2013-03-18 20:40:00,55.0,50.6,29.69,SW,219,3.0,5.0,85,0.00,,,1.21,Wunderground v.1.15,2013-03-19 00:40:00,
2013-03-18 20:50:00,55.0,50.6,29.69,SSW,199,3.0,3.0,85,0.00,,,1.21,Wunderground v.1.15,2013-03-19 00:50:00,
2013-03-18 21:00:00,55.0,50.6,29.69,SSW,202,2.0,2.0,85,0.00,,,1.21,Wunderground v.1.15,2013-03-19 01:00:00,
2013-03-18 21:10:00,55.1,50.7,29.68,SW,220,3.0,3.0,85,0.00,,,1.21,Wunderground v.1.15,2013-03-19 01:10:00,
2013-03-18 21:20:00,55.1,50.7,29.68,SSW,193,3.0,3.0,85,0.00,,,1.21,Wunderground v.1.15,2013-03-19 01:20:00,
2013-03-18 21:25:00,55.0,50.9,29.68,SSW,208,2.0,3.0,86,0.00,,,1.21,Wunderground v.1.15,2013-03-19 01:25:00,
2013-03-18 21:35:00,54.7,50.9,29.69,SW,229,2.0,3.0,87,0.00,,,1.21,Wunderground v.1.15,2013-03-19 01:35:00,
2013-03-18 21:40:00,54.5,51.0,29.69,SW,233,2.0,2.0,88,0.00,,,1.21,Wunderground v.1.15,2013-03-19 01:40:00,
2013-03-18 21:50:00,54.2,51.0,29.70,WSW,241,3.0,3.0,89,0.23,,,1.23,Wunderground v.1.15,2013-03-19 01:50:00,
2013-03-18 22:00:00,53.5,50.9,29.70,West,271,5.0,5.0,91,0.09,,,1.24,Wunderground v.1.15,2013-03-19 02:00:00,
2013-03-18 22:09:00,52.6,50.3,29.71,West,272,5.0,10.0,92,0.04,,,1.24,Wunderground v.1.15,2013-03-19 02:09:00,
2013-03-18 22:15:00,52.3,50.0,29.71,West,263,5.0,10.0,92,0.00,,,1.24,Wunderground v.1.15,2013-03-19 02:15:00,
2013-03-18 22:25:00,51.9,49.6,29.72,WNW,301,4.0,7.0,92,0.00,,,1.24,Wunderground v.1.15,2013-03-19 02:25:00,
2013-03-18 22:35:00,51.4,49.2,29.72,WNW,295,3.0,5.0,92,0.00,,,1.24,Wunderground v.1.15,2013-03-19 02:35:00,
2013-03-18 22:40:00,51.3,49.1,29.72,WNW,288,3.0,3.0,92,0.00,,,1.24,Wunderground v.1.15,2013-03-19 02:40:00,
2013-03-18 22:50:00,51.1,48.6,29.73,West,264,3.0,3.0,91,0.00,,,1.24,Wunderground v.1.15,2013-03-19 02:50:00,
2013-03-18 23:00:00,51.0,48.5,29.73,West,277,2.0,6.0,91,0.00,,,1.24,Wunderground v.1.15,2013-03-19 03:00:00,
2013-03-18 23:10:00,51.0,48.2,29.73,WNW,284,3.0,3.0,90,0.00,,,1.24,Wunderground v.1.15,2013-03-19 03:10:00,
2013-03-18 23:20:00,51.0,47.9,29.73,WNW,284,3.0,3.0,89,0.00,,,1.24,Wunderground v.1.15,2013-03-19 03:20:00,
2013-03-18 23:25:00,50.8,47.4,29.73,West,265,2.0,3.0,88,0.00,,,1.24,Wunderground v.1.15,2013-03-19 03:25:00,
2013-03-18 23:35:00,50.7,47.0,29.74,WNW,301,4.0,9.0,87,0.00,,,1.24,Wunderground v.1.15,2013-03-19 03:35:00,
2013-03-18 23:45:00,50.2,46.2,29.74,WNW,291,5.0,6.0,86,0.00,,,1.24,Wunderground v.1.15,2013-03-19 03:45:00,
2013-03-18 23:55:00,49.9,45.6,29.75,WNW,282,3.0,4.0,85,0.00,,,1.24,Wunderground v.1.15,2013-03-19 03:55:00,